Weather Roundup
Issued by NWS

Home | Current Version | Previous Version | Graphics & Text | Print | Product List | Glossary Off
Versions: 1 2 3 4 5 6 7 8 9 10 11 12 13 14 15 16 17 18 19 20 21 22 23 24 25 26 27 28 29 30 31 32 33 34 35 36 37 38 39 40 41 42 43 44 45 46 47 48 49 50

288
NZUS93 KARX 210159
HRRWXR

CURRENT HOURLY OBSERVATIONS ACROSS
MUCH OF THE UPPER MISSISSIPPI VALLEY
NATIONAL WEATHER SERVICE LA CROSSE WI
900 PM CDT FRI APR 20 2018


...SOUTHEAST MINNESOTA...


CITY           SKY/WX    TMP DP  RH WIND       PRES   REMARKS
ROCHESTER      FAIR      39  26  59 CALM      30.43S
ROCHESTER/MAYO FAIR      44  23  43 CALM      30.44S
WINONA         FAIR      43  28  56 CALM      30.43R
AUSTIN         FAIR      37  27  65 E3        30.42F
ALBERT LEA     FAIR      37  25  60 CALM      30.42F
DODGE CENTER   FAIR      37  27  65 CALM      30.43S
PRESTON        FAIR      39  23  52 CALM      30.44S
OWATONNA       FAIR      39  30  70 CALM      30.43F
FARIBAULT      FAIR      41  28  60 CALM      30.44S
$$

...ELSEWHERE IN MINNESOTA...


CITY           SKY/WX    TMP DP  RH WIND       PRES   REMARKS
MINNEAPOLIS    MOCLDY    48  20  32 SW6       30.44R
INTNL FALLS    FAIR      40  25  55 CALM      30.34S
DULUTH         FAIR      47  25  42 SW8       30.38S
RED WING       FAIR      39  23  52 CALM      30.44R
REDWOOD FALLS  CLOUDY    37  31  78 SE6       30.42F WCI  32
MANKATO        FAIR      40  26  57 CALM      30.44S
WORTHINGTON    CLOUDY    35  31  85 E5        30.41R WCI  31
FAIRMONT       CLOUDY    38  27  64 E5        30.42S WCI  34
$$

...SOUTHWEST WISCONSIN...


CITY           SKY/WX    TMP DP  RH WIND       PRES   REMARKS
LA CROSSE      FAIR      45  30  55 CALM      30.44R
PRAIRIE DU CHI FAIR      50  30  47 NW6       30.42R
BOSCOBEL       FAIR      43  33  68 CALM      30.43R HAZE
LONE ROCK      NOT AVBL
PLATTEVILLE    FAIR      53  25  33 CALM      30.42R
FORT MC COY    FAIR      39  24  55 CALM      30.44S
CAMP DOUGLAS   FAIR      35  23  63 CALM      30.42S HAZE
MAUSTON-NEW LI FAIR      37  25  61 CALM      30.42S
VIROQUA        FAIR      44  26  50 NW3       30.43R
WIS DELLS      FAIR      39  21  48 CALM      30.42S
$$

...ELSEWHERE IN WISCONSIN...


CITY           SKY/WX    TMP DP  RH WIND       PRES   REMARKS
MILWAUKEE      FAIR      44  19  36 CALM      30.45R
MADISON        FAIR      41  26  55 CALM      30.43R
GREEN BAY      FAIR      39  25  57 SW3       30.43R
EAU CLAIRE     NOT AVBL
BLACK RVR FLS  FAIR      32  20  60 CALM      30.42S
MEDFORD        FAIR      36  21  55 CALM      30.41R
WAUSAU         FAIR      41  16  36 CALM      30.41R
WIS RAPIDS     FAIR      40  15  36 CALM      30.44R
MARSHFIELD     FAIR      43  17  35 CALM      30.41R
RICE LAKE      FAIR      40  20  44 CALM      30.44S
$$

...NORTHEAST IOWA...


CITY           SKY/WX    TMP DP  RH WIND       PRES   REMARKS
WATERLOO       FAIR      45  35  68 NE9       30.40S
DUBUQUE        FAIR      49  27  42 SE5       30.41R
DECORAH        FAIR      43  25  49 N3        30.42R
MASON CITY     CLOUDY    35  30  82 NE6       30.42F WCI  30
CHARLES CITY   CLOUDY    39  28  65 NE7       30.42S WCI  34
OELWEIN        MOCLDY    45  37  76 NE9       30.41S
$$

...ELSEWHERE IN IOWA...


CITY           SKY/WX    TMP DP  RH WIND       PRES   REMARKS
DES MOINES     CLOUDY    56  25  30 E6        30.37R
IOWA CITY      FAIR      50  21  32 CALM      30.41R
FORT DODGE     MOCLDY    43  36  76 NE9       30.40R
MARSHALLTOWN   CLOUDY    48  34  58 NE7       30.37S
CEDAR RAPIDS   FAIR      54  19  25 E5        30.38S
$$

...NORTHERN ILLINOIS...


CITY           SKY/WX    TMP DP  RH WIND       PRES   REMARKS
CHICAGO-OHARE  MOCLDY    49  11  21 E6        30.44R
CHICAGO-MIDWAY MOCLDY    48  13  24 E5        30.44R
MOLINE         FAIR      49  28  44 CALM      30.39R
ROCKFORD       CLOUDY    48  24  39 E5        30.44S
PEORIA         FAIR      52  25  35 E3        30.40R
$$

NOTE: "FAIR" INDICATES FEW OR NO CLOUDS BELOW 12,000 FEET WITH NO
SIGNIFICANT WEATHER AND/OR OBSTRUCTIONS TO VISIBILITY. WIND
SPEEDS ARE IN MILES-PER-HOUR.




USA.gov is the U.S. government's official web portal to all federal, state and local government web resources and services.